WetterOnline ( https://www.wetteronline.de )

Wetter aktuell Bad Laer

Aktuelles Wetter: Belm (103m)

6-stündlich | Neueste Meldungen
Ortszeit Temperatur Wetter
Mo, 08.03. 7:00 1.5° C bedeckt
Mo, 08.03. 1:00 2.8° C bewölkt
So, 07.03. 19:00 3.2° C bedeckt
So, 07.03. 13:00 2.8° C bedeckt
So, 07.03. 7:00 -1.8° C leicht bewölkt
So, 07.03. 1:00 0.1° C wolkenlos
Sa, 06.03. 19:00 4.4° C bedeckt
Sa, 06.03. 13:00 5.2° C wolkig
Ortszeit Temperatur Wetter
Mo, 08.03. 8:00 2.0° C bewölkt
Mo, 08.03. 7:50 2.0° C bewölkt
Mo, 08.03. 7:40 1.7° C bedeckt
Mo, 08.03. 7:30 1.7° C bedeckt
Mo, 08.03. 7:20 1.7° C bedeckt
Mo, 08.03. 7:10 1.6° C bedeckt
Mo, 08.03. 7:00 1.5° C bedeckt
Mo, 08.03. 6:30 1.5° C bedeckt
Mo, 08.03. 6:00 1.7° C bedeckt
Mo, 08.03. 5:30 1.7° C bedeckt
Mo, 08.03. 5:00 1.8° C bedeckt
Mo, 08.03. 4:30 2.0° C bedeckt
Ortszeit Relative Feuchte Sichtweite
Mo, 08.03. 7:00 96% 18 km
Mo, 08.03. 1:00 84% 15 km
So, 07.03. 19:00 70% 40 km
So, 07.03. 13:00 67% 65 km
So, 07.03. 7:00 96% 14 km
So, 07.03. 1:00 86% 50 km
Sa, 06.03. 19:00 71% 65 km
Sa, 06.03. 13:00 60% 50 km
Ortszeit Relative Feuchte Sichtweite
Mo, 08.03. 8:00 90% 28 km
Mo, 08.03. 7:50 90% -
Mo, 08.03. 7:40 88% -
Mo, 08.03. 7:30 92% 28 km
Mo, 08.03. 7:20 92% -
Mo, 08.03. 7:10 93% -
Mo, 08.03. 7:00 96% 18 km
Mo, 08.03. 6:30 96% 18 km
Mo, 08.03. 6:00 96% 22 km
Mo, 08.03. 5:30 96% 6 km
Mo, 08.03. 5:00 94% 8 km
Mo, 08.03. 4:30 93% 30 km
Ortszeit Niederschlagsmenge Niederschlagsart
Mo, 08.03. 7:00 0.4 l/m2 in 12 Std. Regen
Mo, 08.03. 1:00 0.1 l/m2 in 6 Std. Sprühregen
So, 07.03. 19:00 0.1 l/m2 in 12 Std. Regen
So, 07.03. 13:00 0.0 l/m2 in 6 Std. -
So, 07.03. 7:00 0.0 l/m2 in 12 Std. -
So, 07.03. 1:00 0.0 l/m2 in 6 Std. -
Sa, 06.03. 19:00 0.0 l/m2 in 12 Std. -
Sa, 06.03. 13:00 0.0 l/m2 in 6 Std. -
Ortszeit Niederschlagsmenge Niederschlagsart
Mo, 08.03. 8:00 0.0 l/m2 in 1 Std. -
Mo, 08.03. 7:50 keine Meldung -
Mo, 08.03. 7:40 keine Meldung -
Mo, 08.03. 7:30 0.0 l/m2 in 1 Std. -
Mo, 08.03. 7:20 keine Meldung -
Mo, 08.03. 7:10 keine Meldung -
Mo, 08.03. 7:00 0.0 l/m2 in 1 Std. Regen
Mo, 08.03. 6:30 0.0 l/m2 in 1 Std. -
Mo, 08.03. 6:00 0.0 l/m2 in 1 Std. -
Mo, 08.03. 5:30 0.0 l/m2 in 1 Std. -
Mo, 08.03. 5:00 0.0 l/m2 in 1 Std. -
Mo, 08.03. 4:30 0.0 l/m2 in 1 Std. -
Ortszeit Stärke Spitze Richtung
km/h Bft. km/h Grad Sektor
Mo, 08.03. 7:00 0 0 18 - -
Mo, 08.03. 1:00 13 3 24 290° W
So, 07.03. 19:00 13 3 28 280° W
So, 07.03. 13:00 18 3 25 280° W
So, 07.03. 7:00 4 1 7 150° SO
So, 07.03. 1:00 0 0 11 - -
Sa, 06.03. 19:00 6 1 22 320° NW
Sa, 06.03. 13:00 11 2 25 270° W
Ortszeit Stärke Spitze Richtung
km/h Bft. km/h Grad Sektor
Mo, 08.03. 8:00 4 1 11 70° O
Mo, 08.03. 7:50 4 1 - 70° O
Mo, 08.03. 7:40 4 1 - 80° O
Mo, 08.03. 7:30 4 1 7 90° O
Mo, 08.03. 7:20 4 1 - 90° O
Mo, 08.03. 7:10 4 1 - 80° O
Mo, 08.03. 7:00 0 0 4 - -
Mo, 08.03. 6:30 0 0 4 - -
Mo, 08.03. 6:00 4 1 7 90° O
Mo, 08.03. 5:30 4 1 7 20° N
Mo, 08.03. 5:00 7 2 11 20° N
Mo, 08.03. 4:30 7 2 11 20° N
Ortszeit Untergrenze Bedeckung Gattung
total tief tief mittel hoch
Mo, 08.03. 7:00 60 m 8/8 8/8 - - -
Mo, 08.03. 1:00 300 m 7/8 7/8 - - -
So, 07.03. 19:00 780 m 8/8 8/8 - - -
So, 07.03. 13:00 930 m 8/8 8/8 - - -
So, 07.03. 7:00 1080 m 3/8 3/8 - - -
So, 07.03. 1:00 - 0/8 0/8 - - -
Sa, 06.03. 19:00 1320 m 8/8 8/8 - - -
Sa, 06.03. 13:00 810 m 6/8 6/8 - - -
Ortszeit Bedeckungsgrad in Achtel und Wolkenuntergrenze
Mo, 08.03. 8:00 6(480m) 7(1200m) 7(1500m)
Mo, 08.03. 7:50 6(480m) 7(1200m) 7(1500m)
Mo, 08.03. 7:40 6(450m) 7(1200m) 8(1500m)
Mo, 08.03. 7:30 8(420m) 7(1200m) 8(1500m)
Mo, 08.03. 7:20 8(420m)
Mo, 08.03. 7:10 8(390m)
Mo, 08.03. 7:00 2(60m) 8(390m)
Mo, 08.03. 6:30 3(60m) 7(420m) 8(1500m)
Mo, 08.03. 6:00 1(30m) 3(180m) 8(420m)
Mo, 08.03. 5:30 7(180m) 8(390m)
Mo, 08.03. 5:00 1(60m) 5(210m) 8(360m)
Mo, 08.03. 4:30 1(120m) 8(420m) 8(450m)
Ortszeit Luftdruck NN (hPa) Tendenz (hPa in 3 Std.)
Mo, 08.03. 7:00 1023 + 1,1
Mo, 08.03. 1:00 1022 - 0,2
So, 07.03. 19:00 1023 - 0,5
So, 07.03. 13:00 1026 - 0,9
So, 07.03. 7:00 1027 - 0,9
So, 07.03. 1:00 1030 - 1,2
Sa, 06.03. 19:00 1032 - 0,7
Sa, 06.03. 13:00 1034 - 0,5
Ortszeit Luftdruck NN (hPa) Tendenz (hPa in 3 Std.)
Mo, 08.03. 8:00 1023 + 1,3
Mo, 08.03. 7:50 1023 keine Meldung
Mo, 08.03. 7:40 1023 keine Meldung
Mo, 08.03. 7:30 1023 + 1,0
Mo, 08.03. 7:20 1023 keine Meldung
Mo, 08.03. 7:10 1023 keine Meldung
Mo, 08.03. 7:00 1023 + 1,1
Mo, 08.03. 6:30 1023 + 0,8
Mo, 08.03. 6:00 1023 + 0,5
Mo, 08.03. 5:30 1022 + 0,1
Mo, 08.03. 5:00 1022 - 0,3
Mo, 08.03. 4:30 1022 - 0,3
Ortszeit Schneehöhe (cm)
Mo, 08.03. 7:00 0
Mo, 08.03. 1:00 0
So, 07.03. 19:00 0
So, 07.03. 13:00 0
So, 07.03. 7:00 0
So, 07.03. 1:00 0
Sa, 06.03. 19:00 0
Sa, 06.03. 13:00 0
Ortszeit Schneehöhe (cm)
Mo, 08.03. 8:00 0
Mo, 08.03. 7:50 0
Mo, 08.03. 7:40 0
Mo, 08.03. 7:30 0
Mo, 08.03. 7:20 0
Mo, 08.03. 7:10 0
Mo, 08.03. 7:00 0
Mo, 08.03. 6:30 0
Mo, 08.03. 6:00 0
Mo, 08.03. 5:30 0
Mo, 08.03. 5:00 0
Mo, 08.03. 4:30 0
Link zu dieser Seite / Seite empfehlen

Das Wetter in ...